Location: B�di�
(14.6834°N, 3.1047°W)
Time: 14:54:25
(UTC+00:00)

H-II Stage 2 - Pass Details

Date: 24 January 2020
Orbit: 284 x 28231 km, 28.5° (Epoch: 27 February)

Event Time Altitude Azimuth Distance (km) Brightness Sun altitude
Rises 19:11:17 0° 291° (WNW) 5,617 7.8 -15.6°
Reaches altitude 10° 19:17:09 10° 281° (W) 2,766 6.3 -16.9°
Maximum altitude 19:21:26 25° 224° (SW) 967 3.7 -17.9°
Enters shadow 19:23:21 11° 163° (SSE) 1,210 3.6 -18.4°
